Location: Igon
(43.1667°N, 0.2333°W)
Time: 20:29:47
(UTC+00:00)

Meteor 2-3 Rocket - Pass Details

Date: 29 November 2020
Orbit: 842 x 885 km, 81.2° (Epoch: 21 January)

Event Time Altitude Azimuth Distance (km) Brightness Sun altitude
Rises 05:05:00 0° 198° (SSW) 3,434 6.8 -22.4°
Reaches altitude 10° 05:07:26 10° 202° (SSW) 2,508 6.0 -22.0°
Maximum altitude 05:13:06 63° 283° (WNW) 978 3.7 -21.0°
Drops below altitude 10° 05:18:51 10° 4° (N) 2,549 6.1 -20.0°
Sets 05:21:21 0° 8° (N) 3,496 6.9 -19.5°
